CW7959 Weather Reports


Display with metric or nautical units.
time (UTC)temp
F
wind
direction
speed
MPH
gust
MPH
rain 1hr
in
rain 24hr
in
rain mn
in
humidity
%
barometer
mb
20260906110405 63 216 6.0 13.0 0.03 0.25 0.24 95 1009.1
20260906105407 63 220 3.0 12.0 0.03 0.25 0.24 95 1009.0
20260906104905 63 200 5.0 13.0 0.03 0.25 0.24 95 1009.0
20260906104405 63 221 3.0 10.0 0.02 0.25 0.24 96 1009.3
20260906103905 63 214 5.0 12.0 0.02 0.25 0.24 96 1009.0
20260906103405 62 214 8.0 16.0 0.02 0.24 0.23 96 1009.1
20260906102906 62 206 9.0 16.0 0.02 0.24 0.23 96 1009.2
20260906102404 62 206 10.0 18.0 0.01 0.24 0.22 97 1009.2
20260906101905 62 207 4.0 12.0 0.00 0.23 0.21 97 1009.4
20260906101404 62 219 7.0 15.0 0.00 0.23 0.21 97 1009.6
20260906100904 62 212 2.0 8.0 0.00 0.23 0.21 97 1009.5
20260906100404 62 213 5.0 14.0 0.00 0.23 0.21 97 1009.5
20260906095904 61 212 9.0 16.0 0.00 0.23 0.21 97 1009.6
20260906095404 61 213 5.0 16.0 0.00 0.23 0.21 97 1009.7
20260906094904 61 212 4.0 15.0 0.00 0.23 0.21 97 1009.9
20260906094404 61 203 2.0 9.0 0.01 0.23 0.21 97 1010.2
20260906093905 61 208 4.0 9.0 0.02 0.23 0.21 97 1010.1
20260906093405 61 211 2.0 6.0 0.04 0.23 0.21 97 1010.1
20260906092905 60 209 4.0 9.0 0.04 0.23 0.21 97 1010.3
20260906092405 60 286 0.0 3.0 0.04 0.23 0.21 97 1010.4
20260906091905 60 286 0.0 1.0 0.04 0.23 0.21 97 1010.5
20260906090905 59 287 0.0 2.0 0.04 0.23 0.21 97 1010.5
20260906090405 59 287 0.0 0.0 0.04 0.23 0.21 97 1010.6
20260906085905 59 287 1.0 3.0 0.04 0.23 0.21 97 1010.6
20260906085405 59 287 0.0 1.0 0.04 0.23 0.21 97 1010.8
20260906084905 59 287 0.0 2.0 0.04 0.23 0.21 97 1010.8
20260906084405 59 287 0.0 5.0 0.03 0.22 0.20 97 1010.8
20260906083905 59 289 1.0 8.0 0.02 0.20 0.19 97 1010.9
20260906083405 59 266 3.0 10.0 0.01 0.19 0.17 97 1011.0
20260906082905 59 206 3.0 13.0 0.01 0.19 0.17 97 1011.1
20260906082404 59 202 2.0 10.0 0.01 0.19 0.17 97 1011.3
20260906081905 58 270 3.0 12.0 0.01 0.19 0.17 97 1011.3
20260906081405 58 209 3.0 9.0 0.01 0.19 0.17 97 1011.5
20260906080404 58 194 2.0 7.0 0.01 0.19 0.17 97 1011.6
20260906075405 58 191 1.0 7.0 0.02 0.19 0.17 97 1011.8
20260906074906 58 183 1.0 7.0 0.02 0.19 0.17 97 1011.9
20260906073904 57 181 0.0 1.0 0.01 0.18 0.17 97 1011.9
20260906073405 57 181 1.0 6.0 0.02 0.18 0.17 97 1012.1
20260906072904 57 181 1.0 3.0 0.02 0.18 0.17 97 1012.1
20260906071904 57 181 0.0 2.0 0.03 0.18 0.17 96 1012.1
20260906070905 57 181 1.0 3.0 0.04 0.18 0.17 96 1012.3
20260906070405 56 181 3.0 7.0 0.04 0.18 0.17 96 1012.3
20260906065904 56 181 0.0 0.0 0.04 0.18 0.17 96 1012.3
20260906065405 56 181 0.0 2.0 0.03 0.17 0.16 96 1012.4
20260906064905 56 181 0.0 1.0 0.04 0.17 0.16 96 1012.4
20260906064405 56 181 0.0 0.0 0.04 0.17 0.16 96 1012.5
20260906063905 56 181 0.0 0.0 0.04 0.17 0.16 96 1012.5
20260906063405 56 181 0.0 0.0 0.03 0.17 0.15 96 1012.6
20260906062905 56 181 0.0 0.0 0.04 0.17 0.15 96 1012.6
20260906062406 56 181 0.0 0.0 0.03 0.16 0.14 96 1012.5
20260906061405 56 181 0.0 0.0 0.04 0.15 0.13 96 1012.6
20260906060405 56 181 0.0 2.0 0.05 0.14 0.13 96 1012.7
20260906055905 56 181 0.0 2.0 0.06 0.14 0.13 96 1012.8
20260906055405 56 181 0.0 1.0 0.06 0.14 0.13 96 1012.8
20260906054905 56 181 0.0 0.0 0.06 0.13 0.12 96 1012.9
20260906054405 56 181 0.0 0.0 0.07 0.13 0.12 96 1012.8
20260906053405 56 181 0.0 0.0 0.08 0.13 0.12 95 1013.1
20260906052904 56 181 0.0 0.0 0.07 0.13 0.11 95 1013.1
20260906052405 56 181 0.0 0.0 0.07 0.13 0.11 95 1013.2
20260906051905 56 181 0.0 1.0 0.06 0.12 0.10 95 1013.3
20260906051404 56 181 0.0 2.0 0.06 0.11 0.09 95 1013.4
20260906050905 56 181 0.0 0.0 0.06 0.11 0.09 95 1013.3
20260906050405 56 181 0.0 0.0 0.04 0.09 0.08 95 1013.3
20260906045906 56 181 0.0 0.0 0.03 0.09 0.07 95 1013.3
20260906045406 56 181 0.0 0.0 0.02 0.08 0.06 95 1013.3
20260906044906 55 181 0.0 3.0 0.02 0.07 0.06 95 1013.4
20260906044406 55 181 2.0 6.0 0.02 0.06 0.05 95 1013.7
20260906043906 55 181 0.0 3.0 0.01 0.06 0.04 95 1013.4
20260906043406 55 180 1.0 5.0 0.01 0.06 0.04 95 1013.4
20260906042906 55 180 0.0 2.0 0.01 0.06 0.04 95 1013.4
20260906042406 55 180 0.0 0.0 0.01 0.06 0.04 95 1013.7
20260906041905 55 180 0.0 1.0 0.01 0.06 0.04 95 1013.6
20260906041405 55 180 0.0 5.0 0.01 0.06 0.04 95 1013.6
20260906040906 55 180 1.0 8.0 0.01 0.06 0.04 94 1013.8
20260906040406 55 197 2.0 5.0 0.01 0.06 0.04 94 1013.9
20260906035906 55 202 0.0 3.0 0.01 0.06 0.04 94 1014.1
20260906035405 55 202 2.0 3.0 0.01 0.06 0.04 94 1014.1
20260906034905 55 202 2.0 6.0 0.01 0.06 0.04 94 1014.2
20260906034406 55 202 1.0 3.0 0.00 0.05 0.03 94 1014.4
20260906033905 55 202 0.0 5.0 0.00 0.05 0.03 94 1014.4
20260906032406 55 160 0.0 2.0 0.00 0.05 0.03 94 1014.5
20260906031905 55 160 0.0 3.0 0.00 0.05 0.03 94 1014.4
20260906031405 55 160 1.0 3.0 0.00 0.05 0.03 94 1014.5
20260906030906 55 160 0.0 2.0 0.00 0.05 0.03 93 1014.5
20260906030405 55 160 1.0 3.0 0.00 0.05 0.03 93 1014.7
20260906025904 54 160 2.0 6.0 0.00 0.05 0.03 93 1014.8
20260906024904 54 160 1.0 3.0 0.00 0.05 0.03 93 1015.2
20260906024405 54 160 1.0 5.0 0.00 0.05 0.03 93 1015.3
20260906023905 54 160 0.0 5.0 0.01 0.05 0.03 93 1015.4
20260906023406 54 160 1.0 5.0 0.01 0.06 0.03 93 1015.5
20260906022906 54 160 1.0 3.0 0.02 0.06 0.03 93 1015.4
20260906022405 54 160 0.0 2.0 0.02 0.06 0.03 93 1015.6
20260906021906 54 160 1.0 3.0 0.02 0.06 0.03 93 1015.6
20260906021405 54 160 0.0 2.0 0.02 0.06 0.03 93 1015.8
20260906020406 54 160 1.0 5.0 0.02 0.06 0.03 94 1016.2
20260906015905 54 160 2.0 3.0 0.02 0.06 0.03 94 1016.0
20260906015405 54 160 3.0 6.0 0.02 0.06 0.03 94 1016.1
20260906014906 54 137 1.0 2.0 0.02 0.06 0.03 94 1016.2
20260906014406 54 137 2.0 9.0 0.02 0.06 0.03 95 1016.2
20260906013906 54 186 1.0 8.0 0.02 0.05 0.02 95 1016.3
20260906012905 53 270 0.0 3.0 0.01 0.04 0.02 95 1016.3
20260906012406 53 270 3.0 10.0 0.01 0.04 0.02 95 1016.5
20260906011906 53 215 1.0 5.0 0.01 0.04 0.02 95 1016.4
20260906011405 53 215 0.0 3.0 0.01 0.04 0.02 95 1016.5
20260906010906 53 215 1.0 2.0 0.01 0.04 0.02 94 1016.7
20260906005905 53 215 0.0 2.0 0.01 0.04 0.02 94 1017.0
20260906005405 53 215 1.0 2.0 0.00 0.04 0.01 94 1016.9
20260906004905 53 215 0.0 0.0 0.01 0.04 0.01 94 1017.1
20260906003905 53 215 1.0 3.0 0.01 0.04 0.01 94 1017.1
20260906002904 53 215 0.0 0.0 0.01 0.04 0.01 93 1017.3
20260906002404 53 215 0.0 0.0 0.01 0.04 0.01 93 1017.5
20260906000905 53 215 0.0 2.0 0.01 0.04 0.01 93 1017.7
20260906000406 53 215 0.0 3.0 0.01 0.04 0.01 93 1017.8
20260905235905 53 215 2.0 3.0 0.01 0.04 0.01 93 1017.8
20260905235405 53 215 0.0 2.0 0.01 0.04 0.01 93 1017.8
20260905234905 53 215 2.0 5.0 0.00 0.03 0.00 93 1018.2
20260905234404 53 215 1.0 6.0 0.00 0.03 0.00 93 1018.4
20260905233905 53 215 2.0 6.0 0.00 0.03 0.00 93 1018.6
20260905233405 53 216 0.0 1.0 0.00 0.03 0.00 93 1018.5
20260905232904 53 216 1.0 2.0 0.00 0.03 0.00 93 1019.0
20260905232404 53 216 0.0 1.0 0.00 0.03 0.00 93 1019.0
20260905231905 53 216 0.0 0.0 0.00 0.03 0.00 93 1019.0
20260905231405 53 216 0.0 0.0 0.00 0.03 0.00 93 1019.1
20260905230905 53 216 0.0 1.0 0.00 0.03 0.00 93 1019.0
20260905230406 53 216 1.0 3.0 0.00 0.03 0.00 93 1019.0
20260905225903 53 216 1.0 3.0 0.00 0.03 0.03 93 1018.8
20260905224904 53 216 2.0 3.0 0.00 0.03 0.03 93 1018.9
20260905224404 53 216 1.0 3.0 0.00 0.03 0.03 93 1019.0
20260905223903 53 216 0.0 0.0 0.00 0.03 0.03 93 1019.2
20260905223403 53 216 0.0 1.0 0.00 0.03 0.03 93 1019.2
20260905222403 53 216 0.0 2.0 0.00 0.03 0.03 93 1019.2
20260905221903 53 216 1.0 3.0 0.00 0.04 0.03 93 1019.2
20260905221404 53 216 0.0 3.0 0.00 0.04 0.03 93 1019.5
20260905220403 53 216 1.0 3.0 0.01 0.04 0.03 93 1019.4
20260905215904 53 216 0.0 0.0 0.01 0.04 0.03 93 1019.5
20260905215403 53 216 0.0 0.0 0.01 0.04 0.03 93 1019.6
20260905214903 53 216 0.0 1.0 0.01 0.04 0.03 93 1019.8
20260905213404 53 216 0.0 0.0 0.01 0.04 0.03 93 1019.9
20260905212904 53 216 0.0 0.0 0.01 0.04 0.03 93 1020.0
20260905212404 53 216 0.0 0.0 0.01 0.04 0.03 93 1020.1
20260905211404 53 216 0.0 0.0 0.01 0.04 0.03 93 1020.2
20260905210904 53 216 1.0 3.0 0.00 0.03 0.02 92 1020.2
20260905210404 53 216 0.0 1.0 0.00 0.03 0.02 92 1020.2
20260905205904 53 216 1.0 5.0 0.00 0.03 0.02 92 1020.3
20260905205403 53 216 0.0 2.0 0.00 0.03 0.02 92 1020.3
20260905204903 53 216 0.0 0.0 0.00 0.03 0.02 92 1020.4
20260905204404 53 216 0.0 0.0 0.00 0.03 0.02 92 1020.5
20260905203904 53 216 0.0 0.0 0.00 0.03 0.02 92 1020.5
20260905202904 54 216 0.0 0.0 0.00 0.04 0.02 92 1020.5
20260905202404 54 216 0.0 0.0 0.00 0.05 0.02 92 1020.6
20260905200903 54 216 0.0 0.0 0.00 0.08 0.02 92 1020.7
20260905200403 54 216 0.0 0.0 0.00 0.08 0.02 92 1020.8
20260905195903 54 216 0.0 1.0 0.00 0.09 0.02 91 1020.7
20260905195404 54 216 0.0 1.0 0.00 0.09 0.02 91 1020.6
20260905194904 54 216 0.0 1.0 0.00 0.14 0.02 91 1020.6
20260905194404 54 216 0.0 1.0 0.00 0.23 0.02 91 1020.7
20260905193403 54 216 0.0 2.0 0.00 0.24 0.02 90 1020.5
20260905192904 54 216 0.0 1.0 0.00 0.24 0.02 90 1020.5
20260905192403 55 216 0.0 0.0 0.00 0.24 0.02 90 1020.5
20260905191403 55 216 0.0 0.0 0.00 0.24 0.02 90 1020.2
20260905190903 55 216 0.0 0.0 0.00 0.25 0.02 89 1020.3
20260905190403 55 216 0.0 0.0 0.00 0.26 0.02 89 1020.4
20260905185903 55 216 0.0 0.0 0.00 0.27 0.02 89 1020.3
20260905185403 55 216 0.0 0.0 0.00 0.27 0.02 89 1020.4
20260905184904 55 216 0.0 3.0 0.00 0.27 0.02 89 1020.5
20260905184403 56 216 1.0 5.0 0.00 0.27 0.02 89 1020.5
20260905183903 56 216 6.0 12.0 0.00 0.27 0.02 89 1020.5
20260905183404 56 215 5.0 12.0 0.00 0.27 0.02 87 1020.4
20260905182903 56 215 3.0 7.0 0.00 0.27 0.02 87 1020.5
20260905181403 56 214 2.0 6.0 0.00 0.27 0.02 86 1020.5
20260905180403 56 214 0.0 7.0 0.00 0.27 0.02 85 1020.5
20260905175903 56 214 1.0 8.0 0.00 0.27 0.02 84 1020.4
20260905174403 57 214 1.0 5.0 0.00 0.27 0.02 86 1020.4
20260905173903 57 214 2.0 9.0 0.00 0.27 0.02 86 1020.2
20260905173403 57 214 1.0 7.0 0.00 0.27 0.02 86 1020.2
20260905172904 57 214 3.0 7.0 0.00 0.27 0.02 86 1020.2
20260905172403 58 214 2.0 7.0 0.00 0.27 0.02 86 1020.1
20260905171903 58 214 1.0 5.0 0.00 0.27 0.02 88 1020.1
20260905171403 58 214 1.0 7.0 0.00 0.27 0.02 88 1020.1
20260905170904 58 214 1.0 6.0 0.00 0.27 0.02 87 1020.1
20260905170403 58 214 2.0 8.0 0.00 0.28 0.02 86 1020.0
20260905165404 58 215 0.0 0.0 0.00 0.28 0.02 86 1020.0
20260905164904 57 215 0.0 1.0 0.00 0.29 0.02 85 1019.9
20260905164404 58 215 0.0 3.0 0.00 0.29 0.02 84 1019.8
20260905163904 58 215 0.0 3.0 0.00 0.29 0.02 84 1019.9
20260905163404 58 215 0.0 1.0 0.00 0.29 0.02 87 1019.9
20260905161903 58 215 1.0 3.0 0.00 0.29 0.02 84 1019.7
20260905161404 59 215 0.0 2.0 0.00 0.29 0.02 85 1019.7
20260905160903 59 215 0.0 1.0 0.00 0.29 0.02 84 1019.8
20260905160403 59 215 0.0 3.0 0.00 0.29 0.02 86 1019.8
20260905155904 58 215 2.0 5.0 0.00 0.29 0.02 85 1019.7
20260905155403 58 215 1.0 2.0 0.00 0.29 0.02 84 1019.7
20260905154903 59 215 1.0 5.0 0.00 0.29 0.02 82 1019.7
20260905153903 58 215 1.0 3.0 0.00 0.29 0.02 84 1019.7
20260905153404 58 215 2.0 3.0 0.00 0.29 0.02 86 1019.6
20260905152904 57 215 0.0 1.0 0.00 0.29 0.02 86 1019.7
20260905152403 57 215 0.0 0.0 0.00 0.29 0.02 88 1019.8
20260905151904 57 215 0.0 0.0 0.00 0.29 0.02 86 1019.8
20260905151404 57 215 0.0 1.0 0.00 0.29 0.02 86 1019.8
20260905150903 57 215 1.0 5.0 0.00 0.29 0.02 86 1020.0
20260905150403 57 215 2.0 7.0 0.00 0.29 0.02 85 1019.8
20260905145904 57 215 3.0 6.0 0.00 0.29 0.02 85 1019.8
20260905145403 57 215 2.0 7.0 0.00 0.29 0.02 86 1020.0
20260905144903 57 215 3.0 8.0 0.00 0.29 0.02 85 1019.9
20260905143903 58 208 6.0 9.0 0.00 0.29 0.02 85 1019.8
20260905143404 58 211 5.0 9.0 0.00 0.29 0.02 85 1019.7
20260905142903 58 213 5.0 9.0 0.00 0.29 0.02 85 1019.7
20260905142404 58 214 2.0 8.0 0.00 0.29 0.02 85 1019.7
20260905141904 58 214 2.0 9.0 0.00 0.29 0.02 84 1019.7
20260905140903 58 215 4.0 9.0 0.00 0.29 0.02 84 1019.7
20260905140403 58 214 5.0 12.0 0.00 0.29 0.02 83 1019.8
20260905135903 59 211 5.0 8.0 0.00 0.29 0.02 84 1019.7
20260905134404 59 249 1.0 3.0 0.00 0.29 0.02 83 1019.7
20260905133904 59 249 2.0 5.0 0.00 0.29 0.02 83 1019.7
20260905133403 59 249 0.0 3.0 0.00 0.29 0.02 83 1019.6
20260905132903 59 249 0.0 3.0 0.00 0.29 0.02 83 1019.6
20260905132403 59 249 1.0 3.0 0.00 0.29 0.02 82 1019.6
20260905131904 59 249 2.0 6.0 0.00 0.29 0.02 80 1019.5
20260905131404 60 249 1.0 5.0 0.00 0.29 0.02 80 1019.5
20260905130904 60 249 0.0 3.0 0.00 0.29 0.02 80 1019.4
20260905130404 60 249 1.0 6.0 0.00 0.29 0.02 80 1019.4
20260905125904 60 249 2.0 5.0 0.00 0.29 0.02 79 1019.4
20260905125403 60 249 1.0 3.0 0.00 0.29 0.02 82 1019.4
20260905124903 60 249 2.0 5.0 0.00 0.29 0.02 82 1019.4
20260905124403 60 249 0.0 6.0 0.00 0.29 0.02 84 1019.3
20260905123904 58 246 1.0 5.0 0.00 0.29 0.02 87 1019.3
20260905123403 58 246 1.0 3.0 0.00 0.29 0.02 86 1019.2
20260905122903 58 246 2.0 5.0 0.00 0.29 0.02 86 1019.2
20260905122404 58 246 0.0 2.0 0.00 0.29 0.02 88 1019.1
20260905121903 58 246 0.0 1.0 0.00 0.29 0.02 91 1019.1
20260905121404 57 246 0.0 2.0 0.00 0.30 0.02 91 1019.0
20260905120904 57 246 0.0 2.0 0.00 0.31 0.02 91 1019.0
20260905120404 57 246 0.0 3.0 0.00 0.31 0.02 92 1019.0
20260905115904 56 246 1.0 3.0 0.00 0.31 0.02 90 1019.0
20260905115403 57 246 3.0 7.0 0.00 0.31 0.02 87 1019.1
20260905114403 57 217 0.0 2.0 0.01 0.31 0.02 87 1018.7
20260905113904 58 217 0.0 2.0 0.01 0.31 0.02 90 1018.7
20260905113403 57 217 0.0 0.0 0.01 0.31 0.02 89 1018.7
20260905112904 57 217 1.0 5.0 0.01 0.31 0.02 89 1018.6
20260905111904 57 217 0.0 1.0 0.01 0.31 0.02 90 1018.5
20260905111404 57 217 0.0 0.0 0.01 0.31 0.02 93 1018.4